Elwood, MO

11:31 AM CDT on September 25, 2016 (GMT -0500)
Rosecrans Memorial

Weather History for KSTJ - March, 2012

Change the Weather History Date:

Tuesday, March 6, 2012

  Actual Average Record
Temperature  
Mean Temperature 62 °F 39 °F  
Max Temperature 73 °F 50 °F 75 °F (1987)
Min Temperature 50 °F 28 °F -8 °F (1960)
Degree Days  
Heating Degree Days 3 26  
Month to date heating degree days 125 164  
Since 1 July heating degree days 3842 4472  
Cooling Degree Days 0 0  
Month to date cooling degree days 0 0  
Year to date cooling degree days 0 0  
Growing Degree Days 12 (Base 50)    
Moisture  
Dew Point 42 °F    
Average Humidity 46    
Maximum Humidity 60    
Minimum Humidity 31    
Precipitation  
Precipitation 0.00 in 0.06 in 0.85 in (1900)
Month to date precipitation 0.11 0.34  
Year to date precipitation 2.57 1.83  
Sea Level Pressure  
Sea Level Pressure 29.79 in    
Wind  
Wind Speed 22 mph (SSW)    
Max Wind Speed 33 mph    
Max Gust Speed 46 mph    
Visibility 10 miles    
Events      
T = Trace of Precipitation, MM = Missing Value Source: NWS Daily Summary

Daily Weather History Graph

Daily Weather History Graph

Search for Another Location

Airport or City:

Trip Planner

Search our weather history database for the weather conditions in past years. The results will help you decide how hot, cold, wet, or windy it might be!

Date:

Astronomy

Mar. 06, 2012 Rise Set
Actual Time 6:44 AM CST 6:17 PM CST
Civil Twilight 6:17 AM CST 6:44 PM CST
Nautical Twilight 5:46 AM CST 7:15 PM CST
Astronomical Twilight 5:14 AM CST 7:47 PM CST
Moon 4:45 PM CST (3/6) 5:20 AM CST (3/6)
Length of Visible Light 12h 27m
Length of Day
11h 33m
Waxing Gibbous, 96% of the Moon is Illuminated
Mar 6
Waxing Gibbous
Mar 8
Full
Mar 14
Last Quarter
Mar 22
New
Mar 30
First Quarter

Hourly Weather History & Observations

Time (CST) Temp. Dew Point Humidity Pressure Visibility Wind Dir Wind Speed Gust Speed Precip Events Conditions
12:53 AM 53.1 °F 35.1 °F 50% 29.91 in 10.0 mi South 13.8 mph - N/A   Clear
1:53 AM 55.0 °F 36.0 °F 49% 29.90 in 10.0 mi South 16.1 mph - N/A   Clear
2:53 AM 57.0 °F 36.0 °F 45% 29.86 in 10.0 mi South 20.7 mph - N/A   Clear
3:53 AM 57.0 °F 36.0 °F 45% 29.85 in 10.0 mi South 19.6 mph 29.9 mph N/A   Clear
4:53 AM 55.9 °F 36.0 °F 47% 29.83 in 10.0 mi South 20.7 mph 27.6 mph N/A   Clear
5:53 AM 55.4 °F 37.4 °F 51% 29.83 in 10.0 mi South 18.4 mph 27.6 mph N/A   Clear
6:53 AM 55.0 °F 37.0 °F 51% 29.83 in 10.0 mi SSW 16.1 mph - N/A   Clear
7:53 AM 57.0 °F 37.9 °F 49% 29.83 in 10.0 mi SSW 21.9 mph 31.1 mph N/A   Clear
8:53 AM 60.1 °F 39.0 °F 46% 29.83 in 10.0 mi SSW 24.2 mph 34.5 mph N/A   Clear
9:53 AM 64.0 °F 36.0 °F 35% 29.82 in 9.0 mi SSW 25.3 mph 34.5 mph N/A   Clear
10:53 AM 66.0 °F 35.1 °F 32% 29.81 in 9.0 mi SSW 25.3 mph 35.7 mph N/A   Partly Cloudy
11:53 AM 69.1 °F 37.0 °F 31% 29.78 in 10.0 mi SSW 23.0 mph 34.5 mph N/A   Partly Cloudy
12:53 PM 68.0 °F 37.0 °F 32% 29.76 in 10.0 mi SSW 24.2 mph 34.5 mph N/A   Mostly Cloudy
1:53 PM 70.0 °F 39.0 °F 32% 29.73 in 10.0 mi SSW 26.5 mph 38.0 mph N/A   Clear
2:53 PM 70.0 °F 43.0 °F 38% 29.71 in 10.0 mi South 21.9 mph 31.1 mph N/A   Clear
3:53 PM 72.0 °F 45.0 °F 38% 29.70 in 10.0 mi SSW 19.6 mph 33.4 mph N/A   Clear
4:53 PM 71.6 °F 46.4 °F 41% 29.71 in 10.0 mi South 23.0 mph 31.1 mph N/A   Clear
5:53 PM 66.9 °F 46.0 °F 47% 29.70 in 10.0 mi South 24.2 mph 33.4 mph N/A   Clear
6:53 PM 66.0 °F 48.0 °F 52% 29.72 in 10.0 mi South 21.9 mph 32.2 mph N/A   Clear
7:53 PM 64.9 °F 48.0 °F 54% 29.75 in 10.0 mi SSW 27.6 mph 35.7 mph N/A   Scattered Clouds
8:13 PM 64.4 °F 48.2 °F 56% 29.77 in 8.0 mi SSW 28.8 mph 41.4 mph N/A   Overcast
8:36 PM 64.4 °F 48.2 °F 56% 29.77 in 9.0 mi South 27.6 mph 38.0 mph N/A   Overcast
8:53 PM 64.4 °F 48.2 °F 56% 29.77 in 10.0 mi SSW 23.0 mph 35.7 mph N/A   Mostly Cloudy
9:53 PM 63.0 °F 48.0 °F 58% 29.76 in 10.0 mi South 23.0 mph 32.2 mph N/A   Partly Cloudy
10:53 PM 63.0 °F 48.0 °F 58% 29.75 in 10.0 mi South 24.2 mph 38.0 mph N/A   Clear
11:53 PM 62.1 °F 48.0 °F 60% 29.74 in 10.0 mi South 26.5 mph 36.8 mph N/A   Clear